EW2664 Weather Reports


time (UTC)temp
C
wind
direction
speed
KPH
gust
KPH
rain 1hr
cm
rain 24hr
cm
rain mn
cm
humidity
%
barometer
mb
20260503033004 26 246 0.0 4.8 0.00 0.00 0.00 76 1014.3
20260503031508 26 207 0.0 6.4 0.00 0.00 0.00 75 1013.9
20260503030008 26 279 0.0 9.7 0.00 0.00 0.00 73 1013.9
20260503024511 26 247 1.6 4.8 0.00 0.00 0.00 72 1013.9
20260503023013 27 242 0.0 3.2 0.00 0.00 0.00 71 1013.9
20260503021507 27 195 0.0 3.2 0.00 0.00 0.00 70 1013.8
20260503020007 27 261 0.0 3.2 0.00 0.00 0.00 69 1013.5
20260503014521 27 267 1.6 6.4 0.00 0.00 0.00 68 1013.7
20260503013024 27 246 1.6 11.3 0.00 0.00 0.00 66 1013.6
20260503011514 27 254 3.2 11.3 0.00 0.00 0.00 64 1013.5
20260503010008 27 256 0.0 9.7 0.00 0.00 0.00 62 1013.2
20260503004540 28 248 1.6 9.7 0.00 0.00 0.00 60 1012.9
20260503003015 28 298 3.2 11.3 0.00 0.00 0.00 58 1012.9
20260503001516 28 311 1.6 9.7 0.00 0.00 0.00 56 1012.7
20260503000012 29 233 3.2 9.7 0.00 0.00 0.00 54 1012.5
20260502234512 30 267 3.2 12.9 0.00 0.00 0.00 51 1012.3
20260502233016 31 328 1.6 6.4 0.00 0.00 0.00 47 1011.9
20260502231516 31 149 1.6 6.4 0.00 0.00 0.00 46 1011.7
20260502230017 32 240 3.2 12.9 0.00 0.00 0.00 43 1011.5
20260502224509 32 253 3.2 12.9 0.00 0.00 0.00 41 1011.1
20260502223012 32 245 1.6 11.3 0.00 0.00 0.00 41 1010.8
20260502221518 33 258 3.2 11.3 0.00 0.00 0.00 40 1011.0
20260502220031 33 266 6.4 12.9 0.00 0.00 0.00 39 1011.0
20260502214518 34 219 4.8 12.9 0.00 0.00 0.00 38 1011.0
20260502213012 34 248 4.8 16.1 0.00 0.00 0.00 37 1010.7
20260502211528 34 227 3.2 14.5 0.00 0.00 0.00 37 1010.4
20260502210022 34 265 4.8 16.1 0.00 0.00 0.00 36 1010.3
20260502204522 35 267 4.8 19.3 0.00 0.00 0.00 35 1010.4
20260502203010 35 257 4.8 16.1 0.00 0.00 0.00 36 1010.4
20260502201515 35 236 3.2 12.9 0.00 0.00 0.00 38 1010.6
20260502200020 35 269 6.4 17.7 0.00 0.00 0.00 36 1010.8
20260502194504 35 226 4.8 17.7 0.00 0.00 0.00 38 1011.1
20260502193006 35 208 3.2 16.1 0.00 0.00 0.00 39 1011.1
20260502191521 35 190 3.2 16.1 0.00 0.00 0.00 40 1011.3
20260502190020 35 263 3.2 17.7 0.00 0.00 0.00 38 1011.4
20260502184523 34 267 3.2 12.9 0.00 0.00 0.00 43 1011.2
20260502183006 35 142 3.2 17.7 0.00 0.00 0.00 43 1011.3
20260502181509 34 225 3.2 16.1 0.00 0.00 0.00 46 1011.5
20260502163032 33 219 3.2 6.4 0.00 0.00 0.00 56 1012.2
20260502161509 32 150 1.6 4.8 0.00 0.00 0.00 59 1012.1
20260502151527 31 236 1.6 6.4 0.00 0.00 0.00 62 1012.8
20260502123021 27 253 0.0 6.4 0.00 0.00 0.00 78 1012.4
20260502121522 27 242 0.0 4.8 0.00 0.00 0.00 80 1012.2
20260502114510 25 167 0.0 0.0 0.00 0.00 0.00 85 1012.3
20260502113019 24 60 0.0 0.0 0.00 0.00 0.00 87 1012.2
20260502111522 23 60 0.0 0.0 0.00 0.00 0.00 87 1012.3
20260502110006 23 51 0.0 0.0 0.00 0.00 0.00 85 1012.4
20260502104533 23 51 0.0 0.0 0.00 0.00 0.00 84 1012.4
20260502103015 23 51 0.0 0.0 0.00 0.00 0.00 84 1012.2
20260502101520 23 51 0.0 0.0 0.00 0.00 0.00 84 1012.2
20260502091522 23 27 0.0 0.0 0.00 0.00 0.00 84 1012.3
20260502071529 23 304 0.0 0.0 0.00 0.00 0.00 85 1012.2
20260502070021 23 263 0.0 0.0 0.00 0.00 0.00 85 1012.3
20260502064526 23 263 0.0 0.0 0.00 0.00 0.00 85 1012.3
20260502063006 23 263 0.0 0.0 0.00 0.00 0.00 85 1012.3
20260502061513 23 263 0.0 0.0 0.00 0.00 0.00 84 1012.5
20260502060018 23 263 0.0 0.0 0.00 0.00 0.00 83 1012.4
20260502054524 23 263 0.0 0.0 0.00 0.00 0.00 83 1012.4
20260502053004 24 263 0.0 0.0 0.00 0.00 0.00 82 1012.3
20260502051525 24 263 0.0 0.0 0.00 0.00 0.00 81 1012.6
20260502050016 24 263 0.0 0.0 0.00 0.00 0.00 80 1012.7
20260502044523 24 263 0.0 0.0 0.00 0.00 0.00 79 1012.6
20260502043025 25 263 0.0 0.0 0.00 0.00 0.00 78 1012.8
20260502041508 25 263 0.0 0.0 0.00 0.00 0.00 77 1012.8
20260502040014 25 263 0.0 0.0 0.00 0.00 0.00 76 1013.2
20260502034535 25 263 0.0 0.0 0.00 0.00 0.00 77 1013.3